Location: Martin
(32.0982°N, 93.2193°W)
Time: 04:20:40
(UTC+00:00)

Envisat - Visible Passes

Search period start: 18 September 2024 00:00
Search period end: 28 September 2024 00:00
Orbit: 762 x 764 km, 98.3° (Epoch: 17 September)

Date Brightness Start Highest point End Pass type
(mag) Time Alt. Az. Time Alt. Az. Time Alt. Az.
18 Sep 4.9 09:00:19 10° NNE 09:02:23 24° NNE 09:02:23 24° NNE visible
18 Sep 4.9 10:41:20 10° NW 10:42:32 12° NW 10:42:32 12° NW visible
19 Sep 5.8 08:23:45 10° NE 08:24:23 13° NE 08:24:23 13° NE visible
19 Sep 4.5 10:02:11 10° N 10:04:31 23° NNW 10:04:31 23° NNW visible
20 Sep 4.6 09:24:16 10° N 09:26:31 27° N 09:26:31 27° N visible
21 Sep 5.4 08:47:06 10° NNE 08:48:30 18° NE 08:48:30 18° NE visible
21 Sep 4.8 10:27:04 10° NNW 10:28:39 15° NW 10:28:39 15° NW visible
22 Sep 4.6 09:48:31 10° N 09:50:37 24° NNW 09:50:37 24° NNW visible
23 Sep 5.0 09:10:52 10° NNE 09:12:37 22° NNE 09:12:37 22° NNE visible
24 Sep 5.8 08:34:00 10° NE 08:34:36 13° NE 08:34:36 13° NE visible
24 Sep 4.8 10:13:06 10° NNW 10:14:44 17° NNW 10:14:44 17° NNW visible
25 Sep 4.8 09:34:57 10° N 09:36:42 22° N 09:36:42 22° N visible
26 Sep 5.4 08:57:32 10° NNE 08:58:41 17° NNE 08:58:41 17° NNE visible
26 Sep 5.1 10:38:21 10° NW 10:38:49 11° NW 10:38:49 11° NW visible
27 Sep 4.9 09:59:19 10° N 10:00:48 18° NNW 10:00:48 18° NNW visible
